Location: Girdwood
(60.9430°N, 149.1660°W)
Time: 18:20:12
(UTC-08:00)

Amateur Radio Satellites - All Passes

Search period start: 26 May 2016 17:50
Search period end: 27 May 2016 17:50
Location: Girdwood, 60.9430°N, 149.1660°W

Satellite Date Start Highest point End Downlink Frequencies (MHz)
Time Altitude Azimuth
HORYU 2 26 May 18:00:07 18:04:25 49° 259° (W) 18:08:44 437.375
ITAMSAT 1 26 May 18:00:15 18:01:41 11° 283° (WNW) 18:03:07 435.822/435.867
BEESAT 3 26 May 18:02:33 18:06:25 48° 6° (N) 18:10:18 437.485
STARS 26 May 18:03:58 18:08:11 43° 99° (E) 18:12:22 437.465
LilacSat-2 26 May 18:06:13 18:09:40 33° 61° (ENE) 18:13:07 437.200
HO-68 26 May 18:12:48 18:18:42 29° 35° (NE) 18:24:37 435.675
CINEMA 3 26 May 18:18:50 18:20:46 13° 39° (NE) 18:22:39 145.822/145.860
GOMX 1 26 May 18:20:10 18:25:10 39° 58° (ENE) 18:30:01 467.674
PCSat 26 May 18:22:03 18:27:32 77° 33° (NNE) 18:32:59 145.827
NOAA 18 26 May 18:25:03 18:30:30 75° 65° (ENE) 18:35:59 137.9125
CANX-2 26 May 18:34:15 18:36:27 14° 43° (NE) 18:38:40 2200.000
NOAA 15 26 May 18:34:20 18:39:40 89° 70° (ENE) 18:45:03 137.62
Cubesat XI-IV 26 May 18:35:21 18:40:39 71° 66° (ENE) 18:45:59 437.490
SEEDS 26 May 18:39:48 18:41:25 12° 40° (NE) 18:43:02 437.485
RS-15 26 May 18:40:24 18:50:39 39° 112° (ESE) 19:01:19 29.354- 29.394
Cosmos 2504 26 May 18:44:33 18:51:34 50° 89° (E) 18:59:04 435.465 / 435.565
Cosmos 2491 26 May 18:47:11 18:54:04 27° 288° (WNW) 19:00:56 435.465 / 435.565
CUBESAT XI-V 26 May 18:54:56 18:59:14 33° 93° (E) 19:03:30 437.345
DANDE 26 May 18:57:19 19:02:11 18° 355° (N) 19:07:26 436.750
SWISSCUBE 26 May 18:57:56 19:01:18 19° 317° (NW) 19:04:39 437.505
YUBILEINY 26 May 18:58:56 19:07:36 68° 292° (WNW) 19:16:20 435.215
CUTE 1.7 + AOD 2 26 May 19:00:47 19:03:40 18° 48° (NE) 19:06:34 437.475
KKS-1 26 May 19:01:54 19:06:11 48° 298° (WNW) 19:10:28 437.445
BEESAT 2 26 May 19:03:30 19:07:27 55° 15° (NNE) 19:11:25 435.950
ITUPSAT 1 26 May 19:03:31 19:06:53 19° 317° (NW) 19:10:15 437.325
O/OREOS (USA 219) 26 May 19:06:58 19:11:28 60° 45° (NE) 19:15:54 437.305
AUBIESAT-1 26 May 19:09:41 19:13:14 35° 52° (NE) 19:16:35 437.475
MOZHAYETS 4 26 May 19:09:42 19:14:12 51° 296° (WNW) 19:18:41
DOVE 4 26 May 19:14:12 19:19:08 50° 63° (ENE) 19:23:52 437.250
CUSAT 1 26 May 19:14:45 19:19:54 18° 7° (N) 19:25:02 437.405
CUBEBUG 2 26 May 19:15:07 19:17:01 13° 41° (NE) 19:18:54 437.445
M-CUBED/EXP-1 PRIME 26 May 19:15:15 19:19:00 43° 56° (NE) 19:22:31 437.505
CUTE-I 26 May 19:22:08 19:27:24 63° 256° (WSW) 19:32:44 437.470
AIST 2 26 May 19:26:10 19:30:14 49° 354° (N) 19:34:18 435.215
COMPASS 1 26 May 19:26:13 19:29:01 18° 48° (NE) 19:31:50 437.405
BRITE-PL 26 May 19:27:41 19:33:20 60° 259° (W) 19:38:57 437.365/2234.400
BEESAT 26 May 19:28:10 19:30:50 15° 323° (NW) 19:33:29 436.000
AAUSAT CUBESAT 2 26 May 19:29:56 19:32:36 17° 47° (NE) 19:35:15 437.432
AO-7 26 May 19:32:37 19:36:02 13° 290° (WNW) 19:39:28 29.400- 29.500
LilacSat-2 26 May 19:40:20 19:43:58 42° 262° (W) 19:47:35 437.200
BEESAT 3 26 May 19:40:28 19:44:28 86° 30° (NNE) 19:48:26 437.485
STARS 26 May 19:40:28 19:44:35 40° 300° (WNW) 19:48:41 437.465
HORYU 2 26 May 19:41:05 19:42:05 11° 280° (W) 19:43:05 437.375
UWE-3 26 May 19:45:06 19:47:31 15° 45° (NE) 19:49:57 435.000/436.395/437.385
STRAND 1 26 May 19:49:34 19:52:37 16° 82° (E) 19:55:39 437.568
FUNcube-1 26 May 19:52:36 19:54:33 13° 42° (NE) 19:56:30 145.935
CINEMA 3 26 May 19:52:39 19:56:57 40° 61° (ENE) 20:01:06 145.822/145.860
GOMX 1 26 May 19:57:43 20:03:08 60° 259° (W) 20:08:22 467.674
HO-68 26 May 19:58:25 20:05:29 67° 59° (ENE) 20:12:35 435.675
PCSat 26 May 20:05:41 20:10:43 39° 237° (WSW) 20:15:44 145.827
NOAA 18 26 May 20:06:56 20:11:42 30° 267° (W) 20:16:30 137.9125
CANX-2 26 May 20:07:24 20:11:29 49° 64° (ENE) 20:15:36 2200.000
DELFI C3 26 May 20:09:36 20:10:56 11° 41° (NE) 20:12:17 145.870
SEEDS 26 May 20:12:15 20:16:10 40° 61° (ENE) 20:20:07 437.485
NOAA 15 26 May 20:15:53 20:20:10 24° 272° (W) 20:24:29 137.62
Cubesat XI-IV 26 May 20:16:33 20:21:13 31° 268° (W) 20:25:57 437.490
CUBESAT XI-V 26 May 20:32:15 20:36:55 57° 295° (WNW) 20:41:32 437.345
CUTE 1.7 + AOD 2 26 May 20:34:43 20:38:54 71° 70° (ENE) 20:43:10 437.475
Oscar 11 26 May 20:35:38 20:39:11 26° 54° (NE) 20:42:47 145.826/435.025
Cosmos 2504 26 May 20:37:44 20:44:58 57° 295° (WNW) 20:52:48 435.465 / 435.565
KKS-1 26 May 20:39:23 20:41:55 15° 320° (NW) 20:44:25 437.445
BEESAT 2 26 May 20:41:28 20:45:27 64° 218° (SW) 20:49:25 435.950
DANDE 26 May 20:42:38 20:48:23 21° 22° (NNE) 20:54:25 436.750
AUBIESAT-1 26 May 20:43:56 20:47:45 45° 251° (WSW) 20:51:19 437.475
O/OREOS (USA 219) 26 May 20:46:37 20:50:43 35° 247° (WSW) 20:54:47 437.305
MOZHAYETS 4 26 May 20:47:45 20:50:32 16° 318° (NW) 20:53:18
ZACube-1 26 May 20:47:58 20:51:31 27° 56° (NE) 20:55:03 437.345
CUBEBUG 2 26 May 20:48:41 20:52:47 44° 63° (ENE) 20:56:48 437.445
M-CUBED/EXP-1 PRIME 26 May 20:49:58 20:53:42 35° 254° (WSW) 20:57:10 437.505
RS-15 26 May 20:50:05 21:01:43 80° 141° (SE) 21:13:58 29.354- 29.394
DOVE 4 26 May 20:52:05 20:56:59 42° 264° (W) 21:01:39 437.250
CUSAT 1 26 May 20:58:30 21:05:04 26° 34° (NNE) 21:11:23 437.405
YUBILEINY 26 May 20:58:55 21:06:17 29° 320° (NW) 21:13:42 435.215
COMPASS 1 26 May 20:59:50 21:03:59 70° 69° (ENE) 21:08:11 437.405
PRISM 26 May 21:00:11 21:01:42 12° 82° (E) 21:03:13 437.425
GONETS M04 26 May 21:00:58 21:06:12 18° 62° (ENE) 21:11:26
AAUSAT CUBESAT 2 26 May 21:03:19 21:07:26 64° 68° (ENE) 21:11:35 437.432
AIST 1 26 May 21:04:24 21:05:38 11° 75° (ENE) 21:06:52
AIST 2 26 May 21:05:05 21:09:13 59° 17° (NNE) 21:13:20 435.215
CUTE-I 26 May 21:05:18 21:08:34 16° 278° (W) 21:11:51 437.470
HUMSAT D 26 May 21:05:26 21:08:00 16° 47° (NE) 21:10:33 437.325/437.525
BRITE-PL 26 May 21:09:20 21:12:56 17° 281° (W) 21:16:32 437.365/2234.400
STARS 26 May 21:17:59 21:20:00 13° 322° (NW) 21:21:59 437.465
BEESAT 3 26 May 21:18:24 21:21:52 29° 231° (SW) 21:25:19 437.485
UWE-3 26 May 21:19:07 21:23:17 56° 66° (ENE) 21:27:24 435.000/436.395/437.385
FUNcube-1 26 May 21:25:58 21:29:58 46° 64° (ENE) 21:33:57 145.935
STRAND 1 26 May 21:27:45 21:32:53 62° 104° (ESE) 21:37:59 437.568
CINEMA 3 26 May 21:29:39 21:34:07 46° 261° (W) 21:38:26 145.822/145.860
Cosmos 2499 26 May 21:33:54 21:37:39 15° 60° (ENE) 21:41:30 435.465 / 435.565
AISAT 26 May 21:34:40 21:36:00 11° 34° (NE) 21:37:21 437.250
GOMX 1 26 May 21:38:57 21:42:15 16° 280° (W) 21:45:29 467.674
DELFI C3 26 May 21:41:09 21:44:53 40° 62° (ENE) 21:48:40 145.870
CANX-2 26 May 21:43:43 21:47:32 33° 265° (W) 21:51:26 2200.000
HO-68 26 May 21:46:50 21:53:37 45° 263° (W) 22:00:28 435.675
SEEDS 26 May 21:47:57 21:51:55 41° 263° (W) 21:55:57 437.485
UKube-1 26 May 21:48:04 21:48:49 10° 33° (NNE) 21:49:34 .
PCSat 26 May 21:51:39 21:52:45 11° 258° (WSW) 21:53:51 145.827
ESTCUBE 1 26 May 22:06:56 22:10:04 19° 45° (NE) 22:13:11 437.505/2401.250
CUBESAT XI-V 26 May 22:10:24 22:13:30 18° 317° (NW) 22:16:36 437.345
Oscar 11 26 May 22:10:42 22:15:00 74° 255° (WSW) 22:19:22 145.826/435.025
CUTE 1.7 + AOD 2 26 May 22:11:50 22:15:13 23° 270° (W) 22:18:39 437.475
BEESAT 2 26 May 22:19:59 22:22:41 18° 239° (WSW) 22:25:23 435.950
ZACube-1 26 May 22:23:24 22:27:35 65° 256° (WSW) 22:31:45 437.345
CUBEBUG 2 26 May 22:25:31 22:29:32 37° 263° (W) 22:33:30 437.445
DANDE 26 May 22:26:17 22:33:46 38° 48° (NE) 22:41:26 436.750
CUBEBUG 1 26 May 22:27:50 22:30:58 19° 47° (NE) 22:34:07 437.445
DX 1 26 May 22:30:14 22:33:16 18° 45° (NE) 22:36:18 434.975-435.025
VELOX 1 26 May 22:32:21 22:35:39 21° 47° (NE) 22:38:57 145.980
PRISM 26 May 22:33:48 22:37:58 57° 103° (ESE) 22:42:05 437.425
50 SAT 26 May 22:34:02 22:36:23 16° 50° (NE) 22:38:46 437.505
Cosmos 2504 26 May 22:34:28 22:40:24 24° 325° (NW) 22:46:41 435.465 / 435.565
DOVE 4 26 May 22:35:44 22:35:57 10° 284° (WNW) 22:36:11 437.250
COMPASS 1 26 May 22:36:40 22:40:00 23° 270° (W) 22:43:23 437.405
AIST 1 26 May 22:37:59 22:42:16 52° 97° (E) 22:46:35
HUMSAT D 26 May 22:38:56 22:42:59 64° 68° (ENE) 22:47:03 437.325/437.525
AAUSAT CUBESAT 2 26 May 22:39:52 22:43:19 25° 269° (W) 22:46:47 437.432
CUSAT 1 26 May 22:41:08 22:49:06 55° 59° (ENE) 22:56:21 437.405
AIST 2 26 May 22:43:42 22:47:48 59° 219° (SW) 22:51:53 435.215
GONETS M04 26 May 22:52:37 23:00:59 52° 88° (E) 23:09:19
UWE-3 26 May 22:56:21 23:00:04 28° 267° (W) 23:03:44 435.000/436.395/437.385
SPROUT 26 May 22:59:05 23:01:48 17° 45° (NE) 23:04:33 437.525
YUBILEINY 26 May 23:01:10 23:06:50 18° 352° (N) 23:12:33 435.215
FUNcube-1 26 May 23:02:33 23:06:23 34° 264° (W) 23:10:13 145.935
RS-15 26 May 23:02:52 23:14:48 75° 352° (N) 23:27:13 29.354- 29.394
STRAND 1 26 May 23:07:13 23:11:55 37° 305° (NW) 23:16:36 437.568
AISAT 26 May 23:07:22 23:11:21 32° 56° (NE) 23:15:21 437.250
CINEMA 3 26 May 23:12:13 23:12:24 10° 282° (WNW) 23:12:34 145.822/145.860
DELFI C3 26 May 23:16:06 23:19:50 37° 263° (W) 23:23:36 145.870
UNISAT 6 26 May 23:18:53 23:21:50 18° 87° (E) 23:24:48 437.425
UKube-1 26 May 23:19:56 23:23:43 30° 55° (NE) 23:27:32 .
Cosmos 2499 26 May 23:21:38 23:28:36 46° 86° (E) 23:36:08 435.465 / 435.565
TIGRISAT 26 May 23:26:37 23:29:45 19° 88° (E) 23:32:52 435.000
TISAT 1 26 May 23:27:19 23:29:13 13° 40° (NE) 23:31:06 437.305
HO-68 26 May 23:40:12 23:43:26 13° 287° (WNW) 23:46:40 435.675
ESTCUBE 1 26 May 23:41:41 23:46:11 65° 67° (ENE) 23:50:42 437.505/2401.250
SWISSCUBE 26 May 23:47:53 23:49:00 11° 28° (NNE) 23:50:07 437.505
Oscar 11 26 May 23:49:20 23:51:57 16° 276° (W) 23:54:33 145.826/435.025
ITUPSAT 1 26 May 23:53:31 23:54:43 11° 28° (NNE) 23:55:55 437.325
ANTELSAT 26 May 23:59:38 00:03:34 34° 96° (E) 00:07:31 437.575/2403.000
CUBEBUG 1 27 May 00:02:13 00:06:39 70° 68° (ENE) 00:11:05 437.445
ZACube-1 27 May 00:02:46 00:04:45 13° 278° (W) 00:06:44 437.345
DX 1 27 May 00:04:27 00:08:49 67° 67° (ENE) 00:13:12 434.975-435.025
50 SAT 27 May 00:05:58 00:09:37 78° 70° (ENE) 00:13:19 437.505
VELOX 1 27 May 00:07:05 00:11:33 76° 69° (ENE) 00:16:02 145.980
DANDE 27 May 00:09:24 00:17:45 84° 71° (ENE) 00:26:03 436.750
PRISM 27 May 00:09:25 00:13:08 31° 304° (WNW) 00:16:49 437.425
DUCHIFAT 1 27 May 00:12:14 00:14:06 13° 82° (E) 00:16:00 145.980
JAS-2 27 May 00:12:30 00:12:59 10° 60° (ENE) 00:13:28 435.910
HUMSAT D 27 May 00:15:39 00:19:01 24° 269° (W) 00:22:23 437.325/437.525
AIST 1 27 May 00:16:07 00:20:07 33° 299° (WNW) 00:24:09
BEESAT 27 May 00:16:10 00:18:26 13° 34° (NE) 00:20:42 436.000
AIST 2 27 May 00:22:58 00:25:35 16° 241° (WSW) 00:28:12 435.215
CUSAT 1 27 May 00:23:34 00:31:30 61° 264° (W) 00:38:37 437.405
SPROUT 27 May 00:32:50 00:37:05 61° 66° (ENE) 00:41:20 437.525
Cosmos 2504 27 May 00:32:57 00:37:26 16° 356° (N) 00:42:06 435.465 / 435.565
BUGSAT 1 27 May 00:34:35 00:35:18 10° 80° (E) 00:36:01 437.445
AISAT 27 May 00:43:15 00:47:40 59° 257° (WSW) 00:52:08 437.250
STRAND 1 27 May 00:47:16 00:49:54 14° 328° (NNW) 00:52:33 437.568
POPSAT HIP 1 27 May 00:48:29 00:51:59 25° 91° (E) 00:55:27 437.405
QB50P1 27 May 00:48:57 00:52:28 25° 92° (E) 00:55:58 145.935-145.965
GONETS M04 27 May 00:49:04 00:57:47 62° 294° (WNW) 01:06:30
QB50P2 27 May 00:50:56 00:54:34 27° 93° (E) 00:58:09 145.880/145.840
POLYITAN 1 27 May 00:53:23 00:57:01 27° 93° (E) 01:00:37 437.675
UNISAT 6 27 May 00:54:55 00:59:14 87° 112° (ESE) 01:03:33 437.425
UKube-1 27 May 00:55:16 00:59:35 62° 256° (WSW) 01:03:55 .
TISAT 1 27 May 00:59:58 01:03:58 42° 61° (ENE) 01:07:58 437.305
YUBILEINY 27 May 01:01:19 01:07:51 22° 26° (NNE) 01:14:22 435.215
TIGRISAT 27 May 01:02:45 01:07:03 86° 286° (WNW) 01:11:21 435.000
NANOSAT C BR1 27 May 01:07:41 01:11:31 33° 95° (E) 01:15:19 145.865
Cosmos 2499 27 May 01:14:08 01:21:33 64° 293° (WNW) 01:29:38 435.465 / 435.565
RS-15 27 May 01:16:13 01:28:23 84° 24° (NNE) 01:40:51 29.354- 29.394
ESTCUBE 1 27 May 01:19:28 01:23:23 28° 268° (W) 01:27:20 437.505/2401.250
SWISSCUBE 27 May 01:21:27 01:25:28 28° 51° (NE) 01:29:30 437.505
ISS 27 May 01:22:57 01:24:54 15° 168° (SSE) 01:26:50 145.825
ITUPSAT 1 27 May 01:27:11 01:31:14 28° 51° (NE) 01:35:17 437.325
ANTELSAT 27 May 01:36:22 01:40:29 48° 296° (WNW) 01:44:38 437.575/2403.000
CUBEBUG 1 27 May 01:39:41 01:43:23 25° 269° (W) 01:47:05 437.445
50 SAT 27 May 01:41:19 01:43:51 18° 271° (W) 01:46:24 437.505
DX 1 27 May 01:41:43 01:45:25 26° 268° (W) 01:49:09 434.975-435.025
VELOX 1 27 May 01:44:56 01:48:32 23° 270° (W) 01:52:09 145.980
DUCHIFAT 1 27 May 01:46:32 01:50:43 62° 103° (ESE) 01:54:52 145.980
PRISM 27 May 01:46:53 01:47:20 10° 326° (NW) 01:47:48 437.425
BEESAT 27 May 01:50:45 01:55:07 37° 57° (ENE) 01:59:31 436.000
DANDE 27 May 01:52:39 02:00:08 39° 274° (W) 02:07:32 436.750
JAS-2 27 May 01:53:52 02:00:47 34° 86° (E) 02:07:10 435.910
AIST 1 27 May 01:58:50 01:59:11 10° 323° (NW) 01:59:32
Oscar 19 27 May 01:59:17 02:02:18 15° 81° (E) 02:05:17 437.125/150
STARS 27 May 02:02:29 02:03:23 11° 33° (NNE) 02:04:16 437.465
CUSAT 1 27 May 02:06:33 02:12:11 22° 288° (WNW) 02:17:29 437.405
BUGSAT 1 27 May 02:07:40 02:11:41 53° 101° (ESE) 02:15:39 437.445
SPROUT 27 May 02:09:41 02:13:23 27° 268° (W) 02:17:05 437.525
Gurwin Techsat 1B 27 May 02:17:29 02:19:03 11° 76° (ENE) 02:20:37 435.225
SO-50 27 May 02:19:11 02:23:16 26° 124° (SE) 02:27:19 436.795
AISAT 27 May 02:23:03 02:25:08 13° 278° (W) 02:27:14 437.250
POPSAT HIP 1 27 May 02:23:59 02:28:11 66° 293° (WNW) 02:32:21 437.405
QB50P1 27 May 02:24:28 02:28:39 65° 292° (WNW) 02:32:49 145.935-145.965
QB50P2 27 May 02:26:32 02:30:43 60° 294° (WNW) 02:34:52 145.880/145.840
Cosmos 2504 27 May 02:28:55 02:34:42 21° 28° (NNE) 02:40:44 435.465 / 435.565
POLYITAN 1 27 May 02:29:00 02:33:10 59° 294° (WNW) 02:37:18 437.675
UNISAT 6 27 May 02:32:12 02:35:33 23° 309° (NW) 02:38:54 437.425
UKube-1 27 May 02:34:26 02:36:33 13° 277° (W) 02:38:39 .
TISAT 1 27 May 02:35:45 02:39:43 38° 262° (W) 02:43:42 437.305
TIGRISAT 27 May 02:40:04 02:43:17 21° 310° (NW) 02:46:30 435.000
NANOSAT C BR1 27 May 02:43:23 02:47:27 49° 296° (WNW) 02:51:30 145.865
GONETS M04 27 May 02:49:26 02:56:42 28° 323° (NW) 03:03:57
KKS-1 27 May 02:57:29 03:01:15 27° 53° (NE) 03:05:01 437.445
SWISSCUBE 27 May 02:58:07 03:02:54 80° 253° (WSW) 03:07:44 437.505
ISS 27 May 02:58:25 03:00:29 16° 188° (S) 03:02:33 145.825
YUBILEINY 27 May 02:59:05 03:07:27 45° 56° (NE) 03:15:46 435.215
ITUPSAT 1 27 May 03:03:56 03:08:43 80° 254° (WSW) 03:13:33 437.325
MOZHAYETS 4 27 May 03:08:14 03:12:00 26° 52° (NE) 03:15:48
Cosmos 2499 27 May 03:10:14 03:16:32 27° 322° (NW) 03:23:15 435.465 / 435.565
ANTELSAT 27 May 03:14:09 03:16:23 14° 318° (NW) 03:18:37 437.575/2403.000
DUCHIFAT 1 27 May 03:22:36 03:26:12 28° 304° (NW) 03:29:47 145.980
BEESAT 27 May 03:28:09 03:32:50 54° 258° (WSW) 03:37:33 436.000
RS-15 27 May 03:28:52 03:40:40 60° 233° (SW) 03:52:37 29.354- 29.394
AO-7 27 May 03:30:10 03:33:52 13° 71° (ENE) 03:37:33 29.400- 29.500
STARS 27 May 03:34:44 03:38:35 30° 55° (NE) 03:42:27 437.465
DANDE 27 May 03:37:12 03:40:56 14° 297° (WNW) 03:44:40 436.750
Oscar 19 27 May 03:37:34 03:42:44 61° 103° (ESE) 03:47:50 437.125/150
JAS-2 27 May 03:38:51 03:46:43 88° 291° (WNW) 03:53:55 435.910
BUGSAT 1 27 May 03:43:19 03:46:57 31° 303° (WNW) 03:50:31 437.445
Gurwin Techsat 1B 27 May 03:55:20 04:00:28 45° 98° (E) 04:05:33 435.225
SO-50 27 May 03:58:21 04:03:16 77° 146° (SSE) 04:08:08 436.795
POPSAT HIP 1 27 May 04:00:34 04:03:20 17° 314° (NW) 04:06:05 437.405
QB50P1 27 May 04:01:03 04:03:47 17° 314° (NW) 04:06:31 145.935-145.965
QB50P2 27 May 04:03:12 04:05:50 16° 315° (NW) 04:08:27 145.880/145.840
POLYITAN 1 27 May 04:05:41 04:08:16 16° 315° (NW) 04:10:51 437.675
Cosmos 2491 27 May 04:08:26 04:15:47 31° 76° (ENE) 04:23:08 435.465 / 435.565
ITAMSAT 1 27 May 04:17:50 04:22:32 32° 94° (E) 04:27:13 435.822/435.867
NANOSAT C BR1 27 May 04:20:11 04:22:23 14° 318° (NW) 04:24:33 145.865
Cosmos 2504 27 May 04:22:55 04:30:37 44° 57° (ENE) 04:38:46 435.465 / 435.565
CUBESAT XI-V 27 May 04:31:56 04:35:44 25° 51° (NE) 04:39:34 437.345
KKS-1 27 May 04:33:01 04:37:30 75° 253° (WSW) 04:42:01 437.445
SWISSCUBE 27 May 04:38:08 04:41:30 19° 274° (W) 04:44:52 437.505
ITUPSAT 1 27 May 04:44:01 04:47:21 19° 274° (W) 04:50:43 437.325
MOZHAYETS 4 27 May 04:44:13 04:48:48 81° 253° (WSW) 04:53:26
GONETS M04 27 May 04:51:44 04:57:23 18° 355° (N) 05:03:02
YUBILEINY 27 May 04:56:15 05:04:57 73° 263° (W) 05:13:41 435.215
Cosmos 2499 27 May 05:08:25 05:13:13 17° 353° (N) 05:18:12 435.465 / 435.565
BEESAT 27 May 05:09:39 05:11:44 13° 280° (W) 05:13:51 436.000
STARS 27 May 05:10:22 05:14:45 63° 256° (WSW) 05:19:09 437.465
Oscar 19 27 May 05:17:10 05:21:56 37° 305° (NW) 05:26:39 437.125/150
AO-7 27 May 05:21:23 05:29:17 43° 97° (E) 05:37:08 29.400- 29.500
JAS-2 27 May 05:24:04 05:31:02 37° 315° (NW) 05:37:35 435.910
Gurwin Techsat 1B 27 May 05:35:25 05:40:34 50° 300° (WNW) 05:45:41 435.225
STRAND 1 27 May 05:38:05 05:41:38 19° 40° (NE) 05:45:11 437.568
SO-50 27 May 05:39:10 05:44:01 60° 349° (N) 05:48:47 436.795
HORYU 2 27 May 05:41:12 05:44:09 17° 86° (E) 05:47:07 437.375
RS-15 27 May 05:41:43 05:50:41 25° 261° (W) 05:59:42 29.354- 29.394
ITAMSAT 1 27 May 05:57:14 06:02:25 66° 296° (WNW) 06:07:36 435.822/435.867
Cosmos 2491 27 May 06:02:46 06:11:38 85° 101° (ESE) 06:20:30 435.465 / 435.565
CUBESAT XI-V 27 May 06:07:57 06:12:41 89° 266° (W) 06:17:27 437.345
KKS-1 27 May 06:12:03 06:14:52 16° 275° (W) 06:17:43 437.445
Cosmos 2504 27 May 06:16:33 06:24:40 75° 262° (W) 06:33:20 435.465 / 435.565
MOZHAYETS 4 27 May 06:23:36 06:26:44 18° 275° (W) 06:29:54
PRISM 27 May 06:26:41 06:27:37 11° 35° (NE) 06:28:33 437.425
NOAA 18 27 May 06:37:40 06:40:35 14° 80° (E) 06:43:30 137.9125
NOAA 15 27 May 06:39:50 06:43:13 17° 82° (E) 06:46:35 137.62
Cubesat XI-IV 27 May 06:43:16 06:45:57 14° 79° (E) 06:48:39 437.490
STARS 27 May 06:49:49 06:52:02 14° 277° (W) 06:54:15 437.465
GONETS M04 27 May 06:51:38 06:58:20 23° 29° (NNE) 07:05:02
YUBILEINY 27 May 06:53:41 07:00:26 26° 288° (WNW) 07:07:13 435.215
Oscar 19 27 May 06:57:19 07:00:04 15° 328° (NNW) 07:02:47 437.125/150
AIST 1 27 May 06:57:40 06:59:40 13° 43° (NE) 07:01:41
LilacSat-2 27 May 07:04:31 07:06:20 13° 84° (E) 07:08:10 437.200
Cosmos 2499 27 May 07:04:31 07:10:19 20° 25° (NNE) 07:16:19 435.465 / 435.565
JAS-2 27 May 07:08:52 07:14:11 20° 339° (NNW) 07:19:20 435.910
AO-7 27 May 07:14:23 07:22:45 77° 301° (WNW) 07:31:07 29.400- 29.500
STRAND 1 27 May 07:14:58 07:19:59 57° 62° (ENE) 07:25:00 437.568
Gurwin Techsat 1B 27 May 07:16:01 07:19:32 18° 323° (NW) 07:23:03 435.225
HORYU 2 27 May 07:17:00 07:21:28 80° 108° (ESE) 07:25:55 437.375
SO-50 27 May 07:20:12 07:25:03 61° 13° (NNE) 07:29:45 436.795
BRITE-PL 27 May 07:22:36 07:27:14 28° 88° (E) 07:31:33 437.365/2234.400
CUTE-I 27 May 07:28:44 07:33:13 26° 90° (E) 07:37:42 437.470
ITAMSAT 1 27 May 07:37:16 07:41:10 22° 318° (NW) 07:45:05 435.822/435.867
AO-85 27 May 07:44:57 07:49:26 27° 123° (ESE) 07:53:47 145.980
CUBESAT XI-V 27 May 07:47:14 07:50:44 21° 274° (W) 07:54:17 437.345
GOMX 1 27 May 07:49:50 07:53:48 24° 87° (E) 07:57:32 467.674
PRISM 27 May 07:58:08 08:01:52 33° 57° (ENE) 08:05:39 437.425
Cosmos 2491 27 May 08:01:20 08:09:31 40° 308° (NW) 08:17:44 435.465 / 435.565
Cosmos 2504 27 May 08:10:32 08:16:58 27° 286° (WNW) 08:23:42 435.465 / 435.565
NOAA 18 27 May 08:17:07 08:22:32 55° 103° (ESE) 08:27:55 137.9125
NOAA 15 27 May 08:18:45 08:24:04 65° 105° (ESE) 08:29:21 137.62
Cubesat XI-IV 27 May 08:22:02 08:27:18 54° 101° (ESE) 08:32:34 437.490
AIST 1 27 May 08:34:14 08:38:29 45° 66° (ENE) 08:42:40
LilacSat-2 27 May 08:37:34 08:41:23 73° 105° (ESE) 08:45:10 437.200
DOVE 4 27 May 08:40:41 08:44:43 29° 91° (E) 08:48:32 437.250
GONETS M04 27 May 08:49:19 08:57:48 49° 59° (ENE) 09:06:10
JAS-2 27 May 08:52:04 08:56:43 17° 5° (N) 09:01:19 435.910
UNISAT 6 27 May 08:52:58 08:55:21 15° 43° (NE) 08:57:44 437.425
HORYU 2 27 May 08:54:02 08:57:40 25° 309° (NW) 09:01:18 437.375
STRAND 1 27 May 08:54:42 08:59:25 37° 264° (W) 09:04:12 437.568
Cosmos 2499 27 May 08:58:26 09:06:10 41° 54° (NE) 09:14:19 435.465 / 435.565
TIGRISAT 27 May 09:00:26 09:02:58 16° 44° (NE) 09:05:30 435.000
BRITE-PL 27 May 09:00:52 09:06:19 75° 291° (WNW) 09:11:19 437.365/2234.400
SO-50 27 May 09:00:54 09:05:43 70° 216° (SW) 09:10:23 436.795
HO-68 27 May 09:02:33 09:08:29 27° 87° (E) 09:14:23 435.675
AO-7 27 May 09:07:18 09:14:41 37° 326° (NNW) 09:22:05 29.400- 29.500
CUTE-I 27 May 09:08:32 09:13:55 83° 291° (WNW) 09:19:18 437.470
CINEMA 3 27 May 09:14:10 09:17:28 22° 89° (E) 09:20:43 145.822/145.860
CANX-2 27 May 09:18:04 09:21:39 25° 91° (E) 09:25:13 2200.000
ITAMSAT 1 27 May 09:18:21 09:19:00 10° 341° (NNW) 09:19:40 435.822/435.867
SEEDS 27 May 09:21:42 09:24:51 20° 88° (E) 09:28:00 437.485
AO-85 27 May 09:24:03 09:29:27 75° 144° (SE) 09:34:34 145.980
GOMX 1 27 May 09:27:33 09:32:33 80° 290° (WNW) 09:37:10 467.674
ANTELSAT 27 May 09:32:46 09:36:12 24° 52° (NE) 09:39:37 437.575/2403.000
PRISM 27 May 09:33:00 09:37:05 52° 258° (WSW) 09:41:13 437.425
DUCHIFAT 1 27 May 09:41:00 09:42:05 11° 37° (NE) 09:43:10 145.980
CUTE 1.7 + AOD 2 27 May 09:45:14 09:49:12 35° 96° (E) 09:53:09 437.475
AUBIESAT-1 27 May 09:47:42 09:50:17 20° 100° (E) 09:52:49 437.475
Oscar 11 27 May 09:49:06 09:50:52 12° 81° (E) 09:52:37 145.826/435.025
M-CUBED/EXP-1 PRIME 27 May 09:53:57 09:56:51 26° 103° (ESE) 09:59:40 437.505
NOAA 18 27 May 09:58:00 10:03:10 44° 304° (NW) 10:08:20 137.9125
NOAA 15 27 May 09:58:49 10:03:41 37° 306° (NW) 10:08:29 137.62
Cubesat XI-IV 27 May 10:02:20 10:07:22 43° 303° (WNW) 10:12:24 437.490
ZACube-1 27 May 10:02:26 10:04:31 13° 83° (E) 10:06:35 437.345
Cosmos 2491 27 May 10:03:09 10:09:29 21° 339° (NNW) 10:15:48 435.465 / 435.565
CUBEBUG 2 27 May 10:05:46 10:09:08 23° 90° (E) 10:12:30 437.445
COMPASS 1 27 May 10:08:04 10:11:56 33° 95° (E) 10:15:48 437.405
AAUSAT CUBESAT 2 27 May 10:10:58 10:14:43 30° 94° (E) 10:18:27 437.432
AIST 1 27 May 10:12:02 10:16:04 36° 268° (W) 10:20:02
LilacSat-2 27 May 10:12:25 10:15:22 22° 306° (NW) 10:18:20 437.200
POPSAT HIP 1 27 May 10:16:36 10:19:24 17° 46° (NE) 10:22:11 437.405
QB50P1 27 May 10:16:59 10:19:49 18° 47° (NE) 10:22:38 145.935-145.965
DOVE 4 27 May 10:18:15 10:22:48 58° 294° (WNW) 10:27:04 437.250
QB50P2 27 May 10:19:02 10:21:59 19° 48° (NE) 10:24:55 145.880/145.840
POLYITAN 1 27 May 10:21:28 10:24:26 19° 48° (NE) 10:27:23 437.675
UNISAT 6 27 May 10:27:06 10:31:18 51° 64° (ENE) 10:35:28 437.425
JAS-2 27 May 10:33:30 10:39:24 24° 30° (NNE) 10:45:18 435.910
TIGRISAT 27 May 10:34:42 10:38:56 56° 65° (ENE) 10:43:08 435.000
UWE-3 27 May 10:34:49 10:38:30 29° 94° (E) 10:42:12 435.000/436.395/437.385
NANOSAT C BR1 27 May 10:35:03 10:38:16 21° 50° (NE) 10:41:29 145.865
BRITE-PL 27 May 10:39:49 10:44:04 24° 314° (NW) 10:48:06 437.365/2234.400
FUNcube-1 27 May 10:39:51 10:43:16 24° 91° (E) 10:46:41 145.935
SO-50 27 May 10:41:54 10:45:34 22° 239° (WSW) 10:49:09 436.795
DELFI C3 27 May 10:43:51 10:46:35 17° 87° (E) 10:49:20 145.870
GONETS M04 27 May 10:46:30 10:55:08 67° 265° (W) 11:03:42
CUTE-I 27 May 10:49:02 10:53:25 26° 314° (NW) 10:57:48 437.470
HO-68 27 May 10:50:06 10:57:20 81° 111° (ESE) 11:04:32 435.675
CINEMA 3 27 May 10:50:54 10:55:11 74° 289° (WNW) 10:59:19 145.822/145.860
Cosmos 2499 27 May 10:51:49 11:00:12 83° 259° (W) 11:09:02 435.465 / 435.565
CANX-2 27 May 10:53:39 10:57:55 66° 292° (WNW) 11:02:11 2200.000
SEEDS 27 May 10:56:51 11:01:08 84° 287° (WNW) 11:05:24 437.485
PCSat 27 May 10:57:46 11:01:55 23° 113° (ESE) 11:06:05 145.827
AO-7 27 May 10:59:11 11:05:32 25° 353° (N) 11:11:55 29.400- 29.500
AO-85 27 May 11:04:56 11:10:13 61° 347° (NNW) 11:15:10 145.980
GOMX 1 27 May 11:06:09 11:10:00 23° 313° (NW) 11:13:40 467.674
ANTELSAT 27 May 11:08:13 11:12:33 82° 251° (WSW) 11:16:52 437.575/2403.000
O/OREOS (USA 219) 27 May 11:08:35 11:12:42 34° 113° (ESE) 11:16:48 437.305
PRISM 27 May 11:12:24 11:13:24 11° 279° (W) 11:14:25 437.425
DUCHIFAT 1 27 May 11:12:56 11:16:45 34° 59° (ENE) 11:20:34 145.980
CUTE 1.7 + AOD 2 27 May 11:21:06 11:25:12 46° 297° (WNW) 11:29:19 437.475
AUBIESAT-1 27 May 11:21:49 11:25:12 60° 301° (WNW) 11:28:28 437.475
Oscar 11 27 May 11:23:40 11:27:58 57° 102° (ESE) 11:32:16 145.826/435.025
M-CUBED/EXP-1 PRIME 27 May 11:28:23 11:31:41 45° 304° (NW) 11:34:50 437.505
BUGSAT 1 27 May 11:32:17 11:35:56 30° 56° (ENE) 11:39:33 437.445
ZACube-1 27 May 11:37:29 11:41:39 67° 103° (ESE) 11:45:50 437.345
NOAA 18 27 May 11:39:16 11:42:44 17° 327° (NNW) 11:46:11 137.9125
NOAA 15 27 May 11:39:21 11:42:13 15° 329° (NNW) 11:45:05 137.62
CUBEBUG 2 27 May 11:42:04 11:46:13 68° 291° (WNW) 11:50:21 437.445
Cubesat XI-IV 27 May 11:43:06 11:46:21 17° 326° (NW) 11:49:36 437.490
COMPASS 1 27 May 11:43:37 11:47:41 48° 296° (WNW) 11:51:46 437.405
AAUSAT CUBESAT 2 27 May 11:46:21 11:50:27 53° 294° (WNW) 11:54:33 437.432
HUMSAT D 27 May 11:47:45 11:51:27 30° 94° (E) 11:55:08 437.325/437.525
Oscar 19 27 May 11:48:34 11:52:12 19° 40° (NE) 11:55:49 437.125/150
DANDE 27 May 11:49:59 11:53:52 16° 66° (ENE) 11:58:08 436.750
POPSAT HIP 1 27 May 11:50:21 11:54:33 66° 68° (ENE) 11:58:46 437.405
QB50P1 27 May 11:50:46 11:54:59 67° 68° (ENE) 11:59:12 145.935-145.965
QB50P2 27 May 11:52:58 11:57:13 72° 69° (ENE) 12:01:27 145.880/145.840
CUSAT 1 27 May 11:55:23 12:01:19 29° 79° (E) 12:07:52 437.405
POLYITAN 1 27 May 11:55:27 11:59:40 74° 69° (ENE) 12:03:54 437.675
DOVE 4 27 May 11:56:44 11:59:41 17° 317° (NW) 12:02:32 437.250
UNISAT 6 27 May 12:04:21 12:08:16 32° 265° (W) 12:12:08 437.425
Cosmos 2491 27 May 12:04:38 12:10:36 19° 13° (NNE) 12:16:32 435.465 / 435.565
NANOSAT C BR1 27 May 12:09:19 12:13:33 88° 63° (ENE) 12:17:48 145.865
Gurwin Techsat 1B 27 May 12:10:11 12:13:30 17° 35° (NE) 12:16:48 435.225
UWE-3 27 May 12:11:11 12:15:15 53° 294° (WNW) 12:19:20 435.000/436.395/437.385
TIGRISAT 27 May 12:12:08 12:15:55 29° 266° (W) 12:19:43 435.000
JAS-2 27 May 12:15:35 12:22:54 49° 54° (NE) 12:30:22 435.910
FUNcube-1 27 May 12:15:48 12:19:56 67° 292° (WNW) 12:24:06 145.935
DELFI C3 27 May 12:18:00 12:22:05 89° 135° (SE) 12:26:08 145.870
BRITE-PL 27 May 12:19:39 12:20:51 11° 338° (NNW) 12:22:02 437.365/2234.400
AISAT 27 May 12:24:03 12:26:39 15° 84° (E) 12:29:14 437.250
CINEMA 3 27 May 12:28:47 12:31:43 18° 313° (NW) 12:34:38 145.822/145.860
CUTE-I 27 May 12:30:05 12:31:57 12° 337° (NNW) 12:33:49 437.470
CANX-2 27 May 12:30:18 12:33:08 18° 313° (NW) 12:35:59 2200.000
ITAMSAT 1 27 May 12:31:17 12:33:51 14° 30° (NNE) 12:36:26 435.822/435.867
SEEDS 27 May 12:33:11 12:36:21 21° 310° (NW) 12:39:30 437.485
UKube-1 27 May 12:33:31 12:35:24 13° 82° (E) 12:37:17 .
HO-68 27 May 12:38:07 12:44:41 41° 314° (NW) 12:51:15 435.675
PCSat 27 May 12:39:11 12:44:36 72° 135° (SE) 12:50:02 145.827
GONETS M04 27 May 12:44:03 12:50:25 23° 291° (WNW) 12:56:46
Cosmos 2499 27 May 12:45:27 12:52:25 31° 283° (WNW) 12:59:40 435.465 / 435.565
AO-85 27 May 12:46:08 12:51:18 59° 11° (N) 12:56:03 145.980
ANTELSAT 27 May 12:47:09 12:49:59 17° 274° (W) 12:52:49 437.575/2403.000
O/OREOS (USA 219) 27 May 12:47:25 12:51:57 62° 315° (NW) 12:56:28 437.305
DUCHIFAT 1 27 May 12:48:17 12:52:24 49° 260° (W) 12:56:30 145.980
AO-7 27 May 12:49:24 12:56:07 29° 20° (NNE) 13:02:54 29.400- 29.500
BEESAT 3 27 May 12:56:01 12:58:29 16° 120° (ESE) 13:00:58 437.485
AUBIESAT-1 27 May 12:57:11 12:59:09 15° 322° (NW) 13:01:04 437.475
CUTE 1.7 + AOD 2 27 May 12:58:03 13:00:11 14° 318° (NW) 13:02:19 437.475
50 SAT 27 May 12:59:16 13:02:24 25° 93° (E) 13:05:31 437.505
Oscar 11 27 May 13:00:06 13:03:58 32° 303° (WNW) 13:07:49 145.826/435.025
ESTCUBE 1 27 May 13:00:42 13:04:54 35° 95° (E) 13:09:05 437.505/2401.250
M-CUBED/EXP-1 PRIME 27 May 13:04:02 13:05:33 12° 326° (NW) 13:07:03 437.505
BUGSAT 1 27 May 13:06:59 13:11:09 58° 257° (WSW) 13:15:15 437.445
ZACube-1 27 May 13:14:12 13:17:42 27° 305° (NW) 13:21:13 437.345
CUBEBUG 1 27 May 13:16:57 13:21:01 34° 95° (E) 13:25:02 437.445
DX 1 27 May 13:18:44 13:22:37 30° 94° (E) 13:26:28 434.975-435.025
CUBEBUG 2 27 May 13:19:31 13:22:14 17° 313° (NW) 13:24:57 437.445
COMPASS 1 27 May 13:20:17 13:22:26 14° 317° (NW) 13:24:35 437.405
NOAA 18 27 May 13:21:00 13:21:30 10° 352° (N) 13:22:01 137.9125
AAUSAT CUBESAT 2 27 May 13:22:50 13:25:10 15° 316° (NW) 13:27:30 437.432
HUMSAT D 27 May 13:23:17 13:27:19 52° 294° (WNW) 13:31:22 437.325/437.525
VELOX 1 27 May 13:23:29 13:27:39 37° 97° (E) 13:31:47 145.980
Oscar 19 27 May 13:25:34 13:30:40 56° 62° (ENE) 13:35:46 437.125/150
POPSAT HIP 1 27 May 13:27:14 13:30:45 25° 268° (W) 13:34:16 437.405
QB50P1 27 May 13:27:41 13:31:11 24° 269° (W) 13:34:41 145.935-145.965
DANDE 27 May 13:28:45 13:34:48 49° 91° (E) 13:42:18 436.750
QB50P2 27 May 13:30:06 13:33:29 23° 270° (W) 13:36:53 145.880/145.840
POLYITAN 1 27 May 13:32:36 13:35:58 22° 270° (W) 13:39:19 437.675
CUSAT 1 27 May 13:35:23 13:42:28 81° 103° (ESE) 13:50:34 437.405
SPROUT 27 May 13:44:39 13:48:26 29° 93° (E) 13:52:09 437.525
NANOSAT C BR1 27 May 13:46:53 13:49:54 19° 272° (W) 13:52:55 145.865
Gurwin Techsat 1B 27 May 13:47:21 13:52:23 45° 58° (ENE) 13:57:27 435.225
UWE-3 27 May 13:48:42 13:50:59 14° 316° (NW) 13:53:14 435.000/436.395/437.385
FUNcube-1 27 May 13:52:53 13:55:35 17° 313° (NW) 13:58:17 145.935
DELFI C3 27 May 13:53:29 13:56:31 21° 308° (NW) 13:59:32 145.870
BEESAT 2 27 May 13:57:18 14:00:44 28° 128° (SE) 14:04:12 435.950
AISAT 27 May 13:59:31 14:03:59 70° 105° (ESE) 14:08:24 437.250
JAS-2 27 May 14:00:04 14:07:42 70° 257° (WSW) 14:15:37 435.910
Cosmos 2491 27 May 14:03:10 14:10:58 33° 45° (NE) 14:18:41 435.465 / 435.565
ITAMSAT 1 27 May 14:07:26 14:12:04 34° 53° (NE) 14:16:45 435.822/435.867
UKube-1 27 May 14:08:05 14:12:24 59° 103° (ESE) 14:16:41 .
TISAT 1 27 May 14:09:38 14:12:38 19° 88° (E) 14:15:36 437.305
PCSat 27 May 14:22:56 14:28:17 55° 340° (NNW) 14:33:39 145.827
HO-68 27 May 14:25:46 14:30:51 21° 339° (NNW) 14:35:56 435.675
AO-85 27 May 14:26:59 14:32:04 77° 215° (SW) 14:36:41 145.980
O/OREOS (USA 219) 27 May 14:28:21 14:32:11 26° 339° (NNW) 14:36:00 437.305
DUCHIFAT 1 27 May 14:28:55 14:29:08 10° 281° (W) 14:29:23 145.980
BEESAT 3 27 May 14:31:37 14:35:31 60° 141° (SE) 14:39:27 437.485
50 SAT 27 May 14:32:45 14:36:24 54° 294° (WNW) 14:40:04 437.505
ESTCUBE 1 27 May 14:37:29 14:41:57 52° 296° (WNW) 14:46:22 437.505/2401.250
Oscar 11 27 May 14:38:11 14:38:58 10° 325° (NW) 14:39:45 145.826/435.025
AO-7 27 May 14:39:31 14:47:26 51° 46° (NE) 14:55:24 29.400- 29.500
BUGSAT 1 27 May 14:45:48 14:47:26 12° 278° (W) 14:49:03 437.445
SWISSCUBE 27 May 14:49:01 14:51:36 14° 82° (E) 14:54:10 437.505
CUBEBUG 1 27 May 14:53:13 14:57:30 50° 297° (WNW) 15:01:44 437.445
DX 1 27 May 14:54:48 14:59:07 57° 295° (WNW) 15:03:23 434.975-435.025
ITUPSAT 1 27 May 14:55:07 14:57:44 14° 82° (E) 15:00:21 437.325
NOAA 15 27 May 14:56:34 14:57:41 11° 18° (NNE) 14:58:47 137.62
NOAA 18 27 May 14:58:22 15:00:03 11° 16° (NNE) 15:01:44 137.9125
HUMSAT D 27 May 14:59:58 15:02:11 14° 316° (NW) 15:04:25 437.325/437.525
VELOX 1 27 May 14:59:59 15:04:17 47° 298° (WNW) 15:08:32 145.980
Oscar 19 27 May 15:05:24 15:10:15 38° 264° (W) 15:15:07 437.125/150
DANDE 27 May 15:11:14 15:17:38 60° 298° (WNW) 15:25:34 436.750
HORYU 2 27 May 15:14:20 15:16:59 16° 42° (NE) 15:19:39 437.375
BEESAT 27 May 15:18:09 15:21:46 21° 88° (E) 15:25:21 436.000
CUSAT 1 27 May 15:18:31 15:25:24 42° 309° (NW) 15:33:01 437.405
SPROUT 27 May 15:20:28 15:24:41 56° 294° (WNW) 15:28:51 437.525
Gurwin Techsat 1B 27 May 15:27:13 15:32:23 50° 260° (W) 15:37:36 435.225
BRITE-PL 27 May 15:31:29 15:33:22 12° 26° (NNE) 15:35:14 437.365/2234.400
BEESAT 2 27 May 15:34:15 15:38:16 88° 333° (NNW) 15:42:18 435.950
AISAT 27 May 15:36:24 15:40:12 28° 307° (NW) 15:43:58 437.250
UKube-1 27 May 15:44:27 15:48:18 31° 304° (NW) 15:52:07 .
TISAT 1 27 May 15:44:41 15:48:54 88° 282° (WNW) 15:53:05 437.305
CUTE-I 27 May 15:45:35 15:47:53 13° 26° (NNE) 15:50:11 437.470
ITAMSAT 1 27 May 15:46:10 15:51:19 68° 254° (WSW) 15:56:33 435.822/435.867
JAS-2 27 May 15:48:02 15:54:07 25° 281° (W) 16:00:23 435.910
Cosmos 2491 27 May 16:00:30 16:09:23 79° 73° (ENE) 16:18:08 435.465 / 435.565
AIST 2 27 May 16:06:04 16:09:51 36° 132° (SE) 16:13:40 435.215
PCSat 27 May 16:07:18 16:12:33 45° 5° (N) 16:17:47 145.827
50 SAT 27 May 16:07:40 16:09:27 13° 314° (NW) 16:11:15 437.505
AO-85 27 May 16:07:58 16:11:57 25° 238° (WSW) 16:15:40 145.980
BEESAT 3 27 May 16:09:24 16:13:20 57° 344° (NNW) 16:17:16 437.485
O/OREOS (USA 219) 27 May 16:09:32 16:12:59 21° 4° (N) 16:16:25 437.305
HO-68 27 May 16:11:53 16:16:22 18° 5° (N) 16:20:50 435.675
YUBILEINY 27 May 16:14:46 16:22:03 32° 76° (ENE) 16:29:22 435.215
ESTCUBE 1 27 May 16:15:09 16:17:56 16° 318° (NW) 16:20:41 437.505/2401.250
KKS-1 27 May 16:15:20 16:17:00 12° 81° (E) 16:18:40 437.445
SWISSCUBE 27 May 16:25:39 16:30:26 61° 104° (ESE) 16:35:11 437.505
MOZHAYETS 4 27 May 16:29:58 16:32:23 14° 81° (E) 16:34:46
CUBEBUG 1 27 May 16:30:27 16:32:57 15° 318° (NW) 16:35:26 437.445
AO-7 27 May 16:31:47 16:40:05 71° 251° (WSW) 16:48:28 29.400- 29.500
NOAA 15 27 May 16:31:47 16:35:48 22° 42° (NE) 16:39:48 137.62
ITUPSAT 1 27 May 16:31:48 16:36:35 61° 103° (ESE) 16:41:22 437.325
DX 1 27 May 16:31:49 16:34:34 17° 317° (NW) 16:37:19 434.975-435.025
NOAA 18 27 May 16:34:54 16:39:02 23° 40° (NE) 16:43:11 137.9125
Cubesat XI-IV 27 May 16:37:01 16:40:44 20° 39° (NE) 16:44:27 437.490
VELOX 1 27 May 16:37:24 16:39:53 15° 320° (NW) 16:42:20 145.980
HORYU 2 27 May 16:48:27 16:52:46 53° 63° (ENE) 16:57:05 437.375
STARS 27 May 16:50:40 16:52:51 13° 83° (E) 16:54:59 437.465
BEESAT 27 May 16:55:25 17:00:15 88° 104° (ESE) 17:05:04 436.000
DANDE 27 May 16:56:28 17:02:17 27° 325° (NW) 17:09:00 436.750
SPROUT 27 May 16:57:19 16:59:53 16° 316° (NW) 17:02:27 437.525
CUSAT 1 27 May 17:04:05 17:09:51 22° 335° (NNW) 17:15:53 437.405
BRITE-PL 27 May 17:05:38 17:10:16 26° 48° (NE) 17:14:50 437.365/2234.400
Gurwin Techsat 1B 27 May 17:11:21 17:13:40 13° 282° (WNW) 17:16:00 435.225
BEESAT 2 27 May 17:12:32 17:16:27 49° 353° (N) 17:20:21 435.950
Cosmos 2504 27 May 17:16:59 17:22:19 22° 70° (ENE) 17:27:53 435.465 / 435.565
TISAT 1 27 May 17:20:55 17:24:05 21° 310° (NW) 17:27:15 437.305
CUTE-I 27 May 17:21:58 17:26:31 30° 50° (NE) 17:31:06 437.470
UKube-1 27 May 17:22:15 17:23:13 11° 327° (NNW) 17:24:11 .
ITAMSAT 1 27 May 17:28:26 17:31:49 17° 277° (W) 17:35:12 435.822/435.867
GOMX 1 27 May 17:30:42 17:34:49 23° 47° (NE) 17:38:48 467.674
AUBIESAT-1 27 May 17:37:25 17:38:23 11° 31° (NNE) 17:39:22 437.475
M-CUBED/EXP-1 PRIME 27 May 17:43:16 17:44:59 13° 35° (NE) 17:46:40 437.505
